This demonstration page uses our WeatherBlox Daily Observations layout. Learn more.

Left ArrowRight Arrow

Hourly Observations for October 3, 2022

Temp ( °F °C ) Dew Point ( °F °C ) Humidity (%) Winds ( mph kmh ) Pressure ( in mb ) Visibility ( mi km ) Precip ( " mm )
12:52 am 00:52 Clear 59 15 43 6.1 55 55 ESE 7 11 30.22 1024 10 16 0.00 0.00
1:52 am 01:52 Clear 55 12.8 43 6.1 64 64 ESE 5 7 30.21 1023 10 16 0.00 0.00
2:52 am 02:52 Clear 54 12.2 43 6.1 66 66 SE 3 6 30.21 1023 10 16 0.00 0.00
3:52 am 03:52 Clear 54 12.2 43 6.1 66 66 SE 3 6 30.21 1023 10 16 0.00 0.00
4:52 am 04:52 Clear 51 10.6 43 6.1 74 74 Calm 30.22 1023 10 16 0.00 0.00
5:52 am 05:52 Clear 52 11.1 43 6.1 71 71 ESE 3 6 30.23 1024 10 16 0.00 0.00
6:52 am 06:52 Clear 47 8.3 42 5.6 83 83 Calm 30.24 1024 10 16 0.00 0.00
7:52 am 07:52 Sunny 53 11.7 45 7.2 74 74 ESE 3 6 30.25 1025 10 16 0.00 0.00
8:52 am 08:52 Sunny 61 16.1 48 8.9 62 62 SSE 8 13 30.26 1025 10 16 0.00 0.00
9:52 am 09:52 Sunny 68 20 49 9.4 50 50 SSE 13 20 30.27 1025 10 16 0.00 0.00
10:52 am 10:52 Sunny 70 21.1 49 9.4 47 47 SE 8 13 30.28 1025 10 16 0.00 0.00
11:52 am 11:52 Sunny 72 22.2 49 9.4 44 44 S 5 7 30.27 1025 10 16 0.00 0.00
12:52 pm 12:52 Sunny 77 25 49 9.4 37 37 NNE 6 9 30.24 1024 10 16 0.00 0.00
1:52 pm 13:52 Sunny 79 26.1 49 9.4 35 35 VRB 3 6 30.21 1023 10 16 0.00 0.00
2:52 pm 14:52 Sunny 80 26.7 48 8.9 33 33 E 9 15 30.18 1022 10 16 0.00 0.00
3:52 pm 15:52 Sunny 80 26.7 46 7.8 30 30 VRB 3 6 30.15 1021 10 16 0.00 0.00
4:52 pm 16:52 Sunny 81 27.2 44 6.7 27 27 ENE 8 13 30.15 1021 10 16 0.00 0.00
5:52 pm 17:52 Sunny 79 26.1 46 7.8 31 31 E 7 11 30.14 1021 10 16 0.00 0.00
6:52 pm 18:52 Sunny 74 23.3 47 8.3 38 38 E 7 11 30.15 1021 10 16 0.00 0.00
7:52 pm 19:52 Clear 70 21.1 48 8.9 46 46 E 8 13 30.16 1021 10 16 0.00 0.00
8:52 pm 20:52 Clear 68 20 48 8.9 49 49 E 8 13 30.16 1021 10 16 0.00 0.00
9:52 pm 21:52 Clear 66 18.9 48 8.9 52 52 E 9 15 30.16 1021 10 16 0.00 0.00
10:52 pm 22:52 Clear 62 16.7 46 7.8 56 56 ESE 7 11 30.18 1022 10 16 0.00 0.00
11:52 pm 23:52 Clear 61 16.1 45 7.2 56 56 SE 9 15 30.18 1022 10 16 0.00 0.00

Powered by AerisWeather